Solenzara, France

5:08 PM CEST on September 29, 2016 (GMT +0200)
Solenzara

Weather History for LFKS - May, 2014

Change the Weather History Date:

Friday, May 2, 2014

  Actual Average (LFKJ) Record (LFKJ)
Temperature  
Mean Temperature 62 °F -  
Max Temperature 72 °F 68 °F 78 °F (2003)
Min Temperature 52 °F 50 °F 43 °F (2016)
Degree Days  
Heating Degree Days 3    
Growing Degree Days 12 (Base 50)    
Moisture  
Dew Point 48 °F    
Average Humidity 66    
Maximum Humidity 88    
Minimum Humidity 20    
Precipitation  
Precipitation 0.00 in - - ()
Sea Level Pressure  
Sea Level Pressure 29.73 in    
Wind  
Wind Speed 6 mph ()    
Max Wind Speed 20 mph    
Max Gust Speed 29 mph    
Visibility 6.5 miles    
Events Rain , Thunderstorm    
Averages and records for this station are not official NWS values.
T = Trace of Precipitation, MM = Missing Value Source: Averaged Metar Reports

Daily Weather History Graph

Daily Weather History Graph

Search for Another Location

Airport or City:

Trip Planner

Search our weather history database for the weather conditions in past years. The results will help you decide how hot, cold, wet, or windy it might be!

Date:

Astronomy

May. 02, 2014 Rise Set
Actual Time 6:17 AM CEST 8:21 PM CEST
Civil Twilight 5:47 AM CEST 8:52 PM CEST
Nautical Twilight 5:09 AM CEST 9:29 PM CEST
Astronomical Twilight 4:29 AM CEST 10:10 PM CEST
Moon 8:39 AM CEST (5/2) 11:32 PM CEST (5/2)
Length of Visible Light 15h 05m
Length of Day
14h 04m
Waxing Crescent, 11% of the Moon is Illuminated
May 2
Waxing Crescent
May 7
First Quarter
May 14
Full
May 21
Last Quarter
May 28
New

Hourly Weather History & Observations

Time (CEST) Temp. Dew Point Humidity Pressure Visibility Wind Dir Wind Speed Gust Speed Precip Events Conditions
12:00 AM 53 °F 49 °F 80% 29.86 in 37 mi West 4.6 mph - -   Clear
12:00 AM 53.6 °F 48.2 °F 82% 29.86 in 6.2 mi West 4.6 mph - N/A   Unknown
12:30 AM 53.6 °F 48.2 °F 82% 29.86 in 6.2 mi West 8.1 mph - N/A   Unknown
1:00 AM 54 °F 48 °F 74% 29.85 in 37 mi West 5.8 mph - -   Clear
1:00 AM 53.6 °F 48.2 °F 82% 29.83 in 6.2 mi West 5.8 mph - N/A   Unknown
1:30 AM 53.6 °F 48.2 °F 82% 29.83 in 6.2 mi West 6.9 mph - N/A   Unknown
2:00 AM 54 °F 48 °F 73% 29.84 in 37 mi West 5.8 mph - -   Clear
2:00 AM 53.6 °F 48.2 °F 82% 29.83 in 6.2 mi West 5.8 mph - N/A   Unknown
2:30 AM 53.6 °F 48.2 °F 82% 29.80 in 6.2 mi West 5.8 mph - N/A   Unknown
3:00 AM 53 °F 48 °F 79% 29.81 in 37 mi West 5.8 mph - -   Clear
3:00 AM 53.6 °F 48.2 °F 82% 29.80 in 6.2 mi West 5.8 mph - N/A   Unknown
3:30 AM 53.6 °F 48.2 °F 82% 29.80 in 6.2 mi West 4.6 mph - N/A   Unknown
4:00 AM 53 °F 49 °F 81% 29.79 in 37 mi NNW 3.5 mph - -   Clear
4:00 AM 53.6 °F 48.2 °F 82% 29.77 in 6.2 mi NNW 3.5 mph - N/A   Unknown
4:30 AM 51.8 °F 48.2 °F 88% 29.77 in 6.2 mi Variable 2.3 mph - N/A   Unknown
5:00 AM 53 °F 49 °F 80% 29.77 in 37 mi West 5.8 mph - -   Clear
5:00 AM 53.6 °F 48.2 °F 82% 29.77 in 6.2 mi West 5.8 mph - N/A   Unknown
5:30 AM 53.6 °F 48.2 °F 82% 29.74 in 6.2 mi NW 3.5 mph - N/A   Unknown
6:00 AM 54 °F 49 °F 79% 29.75 in 37 mi North 2.3 mph - -   Clear
6:00 AM 53.6 °F 50.0 °F 88% 29.74 in 6.2 mi Variable 2.3 mph - N/A   Unknown
6:30 AM 53.6 °F 50.0 °F 88% 29.74 in 6.2 mi NNE 1.2 mph - N/A   Unknown
7:00 AM 54 °F 49 °F 79% 29.75 in 37 mi WSW 2.3 mph - -   Clear
7:00 AM 53.6 °F 50.0 °F 88% 29.74 in 6.2 mi Variable 2.3 mph - N/A   Unknown
7:30 AM 53.6 °F 50.0 °F 88% 29.74 in 6.2 mi Variable 2.3 mph - N/A   Overcast
8:00 AM 55 °F 51 °F 81% 29.74 in 34 mi SSW 3.5 mph - -   Clear
8:00 AM 55.4 °F 50.0 °F 82% 29.74 in 6.2 mi SSW 3.5 mph - N/A   Overcast
8:30 AM 55.4 °F 51.8 °F 88% 29.74 in 6.2 mi Calm Calm - N/A   Overcast
9:00 AM 57 °F 52 °F 76% 29.74 in 34 mi WNW 3.5 mph - -   Clear
9:00 AM 57.2 °F 51.8 °F 82% 29.71 in 6.2 mi Variable 3.5 mph - N/A   Overcast
9:30 AM 57.2 °F 51.8 °F 82% 29.71 in 6.2 mi Variable 2.3 mph - N/A   Overcast
10:00 AM 61 °F 46 °F 46% 29.73 in 37 mi SSW 8.1 mph - -   Clear
10:00 AM 60.8 °F 46.4 °F 59% 29.71 in 6.2 mi Variable 8.1 mph - N/A   Overcast
10:30 AM 60.8 °F 51.8 °F 72% 29.71 in 6.2 mi ESE 3.5 mph - N/A   Unknown
11:00 AM 64 °F 51 °F 54% 29.72 in 31 mi South 4.6 mph - -   Clear
11:00 AM 64.4 °F 51.8 °F 64% 29.71 in 6.2 mi South 4.6 mph - N/A   Unknown
11:30 AM 62.6 °F 53.6 °F 72% 29.71 in 6.2 mi ESE 8.1 mph - N/A   Unknown
12:00 PM 65 °F 50 °F 49% 29.72 in 37 mi East 4.6 mph - -   Clear
12:00 PM 64.4 °F 50.0 °F 59% 29.71 in 6.2 mi Variable 4.6 mph - N/A   Unknown
12:30 PM 68.0 °F 44.6 °F 43% 29.71 in 6.2 mi Variable 6.9 mph - N/A   Unknown
1:00 PM 70 °F 47 °F 33% 29.70 in 37 mi WNW 11.5 mph - -   Clear
1:00 PM 69.8 °F 48.2 °F 46% 29.68 in 6.2 mi Variable 11.5 mph 24.2 mph N/A   Partly Cloudy
1:30 PM 69.8 °F 46.4 °F 43% 29.68 in 6.2 mi Variable 4.6 mph - N/A   Partly Cloudy
2:00 PM 72 °F 42 °F 23% 29.68 in 37 mi West 9.2 mph - -   Clear
2:00 PM 71.6 °F 42.8 °F 35% 29.68 in 6.2 mi West 9.2 mph 21.9 mph N/A   Unknown
2:30 PM 71.6 °F 41.0 °F 33% 29.65 in 6.2 mi West 16.1 mph - N/A   Unknown
3:00 PM 72 °F 40 °F 20% 29.68 in 12 mi West 12.7 mph - -   Clear
3:00 PM 71.6 °F 39.2 °F 31% 29.65 in 6.2 mi West 12.7 mph - N/A   Partly Cloudy
3:30 PM 71.6 °F 39.2 °F 31% 29.65 in 6.2 mi West 16.1 mph 28.8 mph N/A   Unknown
4:00 PM 71 °F 40 °F 21% 29.68 in 22 mi West 11.5 mph - -   Clear
4:00 PM 71.6 °F 39.2 °F 31% 29.65 in 6.2 mi West 11.5 mph - N/A   Partly Cloudy
4:30 PM 71.6 °F 41.0 °F 33% 29.68 in 6.2 mi Variable 9.2 mph 20.7 mph N/A   Scattered Clouds
5:00 PM 66 °F 55 °F 59% 29.68 in 25 mi NE 17.3 mph - -   Clear
5:00 PM 66.2 °F 55.4 °F 68% 29.68 in 6.2 mi NE 17.3 mph - N/A   Mostly Cloudy
5:30 PM 66.2 °F 53.6 °F 64% 29.68 in 6.2 mi NNE 13.8 mph - N/A   Scattered Clouds
6:00 PM 64 °F 51 °F 53% 29.68 in 25 mi NE 15.0 mph - -   Clear
6:00 PM 64.4 °F 51.8 °F 64% 29.68 in 6.2 mi NE 15.0 mph - N/A   Partly Cloudy
6:30 PM 64.4 °F 50.0 °F 59% 29.68 in 6.2 mi NE 17.3 mph - N/A   Partly Cloudy
7:00 PM 62 °F 50 °F 55% 29.70 in 22 mi NE 19.6 mph - -   Clear
7:00 PM 62.6 °F 50.0 °F 63% 29.68 in 6.2 mi NE 19.6 mph - N/A   Partly Cloudy
7:30 PM 62.6 °F 50.0 °F 63% 29.68 in 6.2 mi NNE 16.1 mph - N/A Thunderstorm Mostly Cloudy
8:00 PM 61 °F 49 °F 56% 29.72 in 12 mi North 11.5 mph - -   Clear
8:00 PM 60.8 °F 50.0 °F 68% 29.71 in 6.2 mi North 11.5 mph - N/A   Mostly Cloudy
8:30 PM 59.0 °F 48.2 °F 67% 29.71 in 6.2 mi North 9.2 mph - N/A Rain Light Rain
9:00 PM 59 °F 49 °F 60% 29.74 in 37 mi North 9.2 mph - - Rain Light Rain
9:00 PM 59.0 °F 48.2 °F 67% 29.74 in 6.2 mi North 9.2 mph - N/A Rain Light Rain
9:30 PM 59.0 °F 50.0 °F 72% 29.71 in 6.2 mi North 8.1 mph - N/A   Overcast
10:00 PM 58 °F 49 °F 65% 29.75 in 11 mi North 8.1 mph - -   Clear
10:00 PM 57.2 °F 50.0 °F 77% 29.74 in 6.2 mi North 8.1 mph - N/A   Mostly Cloudy
10:30 PM 57.2 °F 50.0 °F 77% 29.74 in 6.2 mi Variable 3.5 mph - N/A   Partly Cloudy
11:00 PM 56 °F 49 °F 70% 29.75 in 37 mi NW 4.6 mph - -   Clear
11:00 PM 57.2 °F 48.2 °F 72% 29.74 in 6.2 mi NW 4.6 mph - N/A   Mostly Cloudy
11:30 PM 57.2 °F 50.0 °F 77% 29.74 in 6.2 mi NNW 5.8 mph - N/A   Mostly Cloudy